Sioux City, IA

4:51 AM CDT on July 27, 2017 (GMT -0500)
Sioux Gateway

Weather History for KSUX - August, 2014

Change the Weather History Date:

Thursday, August 28, 2014

  Actual Average Record
Temperature  
Mean Temperature 75 °F 70 °F  
Max Temperature 82 °F 82 °F 99 °F (1955)
Min Temperature 68 °F 59 °F 39 °F (1986)
Degree Days  
Heating Degree Days 0 1  
Month to date heating degree days 0 6  
Since 1 June heating degree days 26 36  
Since 1 July heating degree days 6 9  
Cooling Degree Days 10 6  
Month to date cooling degree days 238 216  
Year to date cooling degree days 747 761  
Since 1 June cooling degree days 626 697  
Growing Degree Days 25 (Base 50)    
Moisture  
Dew Point 69 °F    
Average Humidity 83    
Maximum Humidity 97    
Minimum Humidity 69    
Precipitation  
Precipitation 0.68 in 0.11 in 2.34 in (1960)
Month to date precipitation 8.75 2.90  
Year to date precipitation 34.26 20.21  
Snow  
Snow 0.00 in 0.00 in 0.00 in ()
Month to date snowfall 0.0 0.0  
Since 1 June snowfall 0.0 0.0  
Since 1 July snowfall 0.0 0.0  
Snow Depth 0.00 in    
Sea Level Pressure  
Sea Level Pressure 29.92 in    
Wind  
Wind Speed 8 mph (SE)    
Max Wind Speed 12 mph    
Max Gust Speed 17 mph    
Visibility 8 miles    
Events Rain    
T = Trace of Precipitation, MM = Missing Value Source: NWS Daily Summary

Daily Weather History Graph

Daily Weather History Graph

Search for Another Location

Airport or City:

Trip Planner

Search our weather history database for the weather conditions in past years. The results will help you decide how hot, cold, wet, or windy it might be!

Date:

Astronomy

Aug. 28, 2014 Rise Set
Actual Time 6:46 AM CDT 8:06 PM CDT
Civil Twilight 6:17 AM CDT 8:35 PM CDT
Nautical Twilight 5:42 AM CDT 9:10 PM CDT
Astronomical Twilight 5:05 AM CDT 9:47 PM CDT
Moon 9:44 AM CDT (8/28) 9:25 PM CDT (8/28)
Length of Visible Light 14h 18m
Length of Day
13h 19m
Waxing Crescent, 9% of the Moon is Illuminated
Aug 28
Waxing Crescent
Sep 2
First Quarter
Sep 8
Full
Sep 15
Last Quarter
Sep 24
New

Hourly Weather History & Observations

Time (CDT) Temp. Heat Index Dew Point Humidity Pressure Visibility Wind Dir Wind Speed Gust Speed Precip Events Conditions
12:52 AM 69.1 °F - 66.9 °F 93% 30.04 in 9.0 mi ESE 5.8 mph - N/A   Mostly Cloudy
1:52 AM 69.1 °F - 66.9 °F 93% 30.01 in 9.0 mi SE 8.1 mph - N/A   Overcast
1:59 AM 69.1 °F - 66.9 °F 93% 30.03 in 6.0 mi SE 6.9 mph - 0.00 in Rain Light Rain
2:10 AM 69.1 °F - 66.9 °F 93% 30.02 in 5.0 mi SE 9.2 mph - 0.02 in Rain Light Rain
2:26 AM 69.1 °F - 66.9 °F 93% 30.02 in 2.5 mi SE 8.1 mph - 0.09 in Rain Rain
2:37 AM 69.1 °F - 68.0 °F 96% 30.02 in 3.0 mi SE 8.1 mph - 0.15 in Rain Rain
2:52 AM 69.1 °F - 68.0 °F 96% 30.00 in 7.0 mi SE 8.1 mph - 0.15 in Rain Light Rain
3:52 AM 69.1 °F - 68.0 °F 96% 29.98 in 7.0 mi ESE 8.1 mph - 0.01 in Rain Light Rain
4:52 AM 69.1 °F - 66.9 °F 93% 29.97 in 8.0 mi SSE 4.6 mph - 0.02 in Rain Light Rain
5:03 AM 69.1 °F - 66.9 °F 93% 29.99 in 8.0 mi SE 8.1 mph - 0.00 in Rain Light Rain
5:38 AM 69.1 °F - 66.9 °F 93% 29.99 in 5.0 mi SSE 6.9 mph - 0.08 in Rain Rain
5:52 AM 69.8 °F - 66.2 °F 88% 29.98 in 4.0 mi SSE 9.2 mph - N/A Rain Rain
6:29 AM 68.0 °F - 66.0 °F 93% 29.96 in 4.0 mi ESE 11.5 mph - 0.21 in Rain Heavy Rain
6:52 AM 68.0 °F - 66.0 °F 93% 29.94 in 8.0 mi ESE 11.5 mph - 0.25 in Rain Light Rain
7:06 AM 68.0 °F - 66.0 °F 93% 29.95 in 5.0 mi ESE 11.5 mph - 0.03 in Rain Rain
7:17 AM 68.0 °F - 66.0 °F 93% 29.95 in 5.0 mi ESE 10.4 mph - 0.05 in Rain Rain
7:37 AM 68.0 °F - 66.0 °F 93% 29.95 in 1.8 mi ESE 6.9 mph - 0.11 in Rain Rain
7:42 AM 68.0 °F - 66.9 °F 96% 29.94 in 3.0 mi ESE 5.8 mph - 0.12 in Rain Light Rain
7:52 AM 68.0 °F - 66.9 °F 96% 29.93 in 8.0 mi ESE 5.8 mph - 0.12 in   Overcast
8:52 AM 69.1 °F - 68.0 °F 96% 29.92 in 10.0 mi ESE 6.9 mph - 0.01 in   Overcast
9:52 AM 71.6 °F - 68.0 °F 88% 29.93 in 10.0 mi SE 10.4 mph - N/A   Overcast
10:52 AM 73.0 °F - 69.1 °F 87% 29.92 in 10.0 mi SSE 8.1 mph - N/A   Overcast
11:52 AM 73.0 °F - 69.1 °F 87% 29.91 in 10.0 mi SSE 11.5 mph - N/A   Overcast
12:52 PM 75.9 °F - 71.1 °F 85% 29.88 in 10.0 mi South 11.5 mph - N/A   Overcast
1:10 PM 78.1 °F - 71.1 °F 79% 29.89 in 10.0 mi South 11.5 mph - N/A   Overcast
1:52 PM 79.0 °F - 71.1 °F 77% 29.86 in 10.0 mi SSW 11.5 mph 17.3 mph N/A   Mostly Cloudy
2:08 PM 79.0 °F - 71.1 °F 77% 29.88 in 10.0 mi SSW 8.1 mph - N/A   Overcast
2:52 PM 82.0 °F 86.7 °F 72.0 °F 71% 29.84 in 10.0 mi South 10.4 mph - N/A   Mostly Cloudy
3:52 PM 80.1 °F 83.8 °F 72.0 °F 76% 29.83 in - South 5.8 mph - N/A   Unknown
4:52 PM 80.1 °F 83.8 °F 72.0 °F 76% 29.82 in 10.0 mi South 8.1 mph - N/A   Mostly Cloudy
5:52 PM 79.0 °F - 73.0 °F 82% 29.81 in 10.0 mi SSE 9.2 mph - N/A   Overcast
6:52 PM 78.1 °F - 72.0 °F 81% 29.81 in 10.0 mi SSE 6.9 mph - N/A   Mostly Cloudy
7:52 PM 77.0 °F - 72.0 °F 84% 29.79 in 10.0 mi SE 5.8 mph - N/A   Overcast
8:52 PM 75.0 °F - 72.0 °F 90% 29.79 in 10.0 mi SSE 5.8 mph - N/A   Partly Cloudy
9:52 PM 75.0 °F - 72.0 °F 90% 29.82 in 10.0 mi SSE 6.9 mph - N/A   Mostly Cloudy
10:52 PM 73.0 °F - 71.1 °F 93% 29.81 in 8.0 mi SSE 5.8 mph - N/A   Scattered Clouds
11:52 PM 73.0 °F - 71.1 °F 93% 29.80 in 7.0 mi SE 5.8 mph - N/A   Mostly Cloudy